Weather History for Westhampton Beach, NY

Change the Weather History Date:

Tuesday, April 1, 2014

  Actual Average Record
Temperature  
Mean Temperature 42 °F -  
Max Temperature 55 °F 49 °F 62 °F (1999)
Min Temperature 32 °F 32 °F 21 °F (2007)
Degree Days  
Heating Degree Days 23    
Moisture  
Dew Point 29 °F    
Average Humidity 62    
Maximum Humidity 82    
Minimum Humidity 41    
Precipitation  
Precipitation 0.00 in - - ()
Sea Level Pressure  
Sea Level Pressure 30.08 in    
Wind  
Wind Speed 8 mph (WNW)    
Max Wind Speed 13 mph    
Max Gust Speed 21 mph    
Visibility 10 miles    
Events      
Averages and records for this station are not official NWS values.
T = Trace of Precipitation, MM = Missing Value Source: NWS Daily Summary

Daily Weather History Graph

Daily Weather History Graph

Search for Another Location

Airport:

Trip Planner

Search our weather history database for the weather conditions in past years. The results will help you decide how hot, cold, wet, or windy it might be!

Date:

Astronomy

Apr. 01, 2014 Rise Set
Actual Time 6:33 AM EDT 7:15 PM EDT
Civil Twilight 6:06 AM EDT 7:43 PM EDT
Nautical Twilight 5:33 AM EDT 8:15 PM EDT
Astronomical Twilight 4:59 AM EDT 8:49 PM EDT
Moon 7:34 AM EDT (4/1) 9:35 PM EDT (4/1)
Length of Visible Light 13h 36m
Length of Day
12h 41m
Waxing Crescent, 4% of the Moon is Illuminated
Apr 1
Waxing Crescent
Apr 7
First Quarter
Apr 15
Full
Apr 22
Last Quarter
Apr 29
New

Hourly Weather History & Observations

Time (EDT) Temp. Windchill Dew Point Humidity Pressure Visibility Wind Dir Wind Speed Gust Speed Precip Events Conditions
12:53 AM 37.9 °F 30.5 °F 27.0 °F 65% 30.05 in 10.0 mi North 11.5 mph 20.7 mph N/A   Overcast
1:53 AM 37.9 °F 32.1 °F 27.0 °F 65% 30.06 in 10.0 mi North 8.1 mph - N/A   Overcast
2:53 AM 37.9 °F 32.7 °F 27.0 °F 65% 30.06 in 10.0 mi NNW 6.9 mph - N/A   Overcast
3:53 AM 35.1 °F 30.1 °F 26.1 °F 70% 30.07 in 10.0 mi NW 5.8 mph - N/A   Mostly Cloudy
4:53 AM 32.0 °F 26.4 °F 25.0 °F 75% 30.07 in 10.0 mi NW 5.8 mph - N/A   Clear
5:53 AM 33.1 °F 30.0 °F 26.1 °F 75% 30.07 in 10.0 mi NW 3.5 mph - N/A   Clear
6:53 AM 33.1 °F 28.7 °F 26.1 °F 75% 30.10 in 10.0 mi NW 4.6 mph - N/A   Clear
7:53 AM 37.9 °F 32.1 °F 28.9 °F 70% 30.12 in 10.0 mi NNW 8.1 mph - N/A   Clear
8:53 AM 41.0 °F 33.9 °F 28.0 °F 60% 30.12 in 10.0 mi NNW 12.7 mph 18.4 mph N/A   Clear
9:53 AM 43.0 °F 36.4 °F 28.0 °F 56% 30.11 in 10.0 mi North 12.7 mph - N/A   Clear
10:53 AM 45.0 °F 39.3 °F 27.0 °F 49% 30.11 in 10.0 mi NNW 11.5 mph - N/A   Clear
11:53 AM 48.0 °F - 27.0 °F 44% 30.10 in 10.0 mi North 11.5 mph - N/A   Clear
12:53 PM 50.0 °F - 28.0 °F 43% 30.09 in 10.0 mi NNW 10.4 mph - N/A   Clear
1:53 PM 52.0 °F - 28.9 °F 41% 30.06 in 10.0 mi WNW 8.1 mph 16.1 mph N/A   Clear
2:53 PM 51.1 °F - 33.1 °F 50% 30.07 in 10.0 mi SSW 9.2 mph - N/A   Clear
3:53 PM 50.0 °F - 30.0 °F 46% 30.05 in 10.0 mi SSW 6.9 mph - N/A   Clear
4:53 PM 46.9 °F - 28.9 °F 50% 30.04 in 10.0 mi South 4.6 mph - N/A   Clear
5:53 PM 45.0 °F 42.6 °F 30.0 °F 56% 30.04 in 10.0 mi SW 4.6 mph - N/A   Clear
6:53 PM 43.0 °F 40.3 °F 30.9 °F 62% 30.04 in 10.0 mi SSW 4.6 mph - N/A   Clear
7:53 PM 42.1 °F 40.2 °F 32.0 °F 67% 30.08 in 10.0 mi ESE 3.5 mph - N/A   Clear
8:53 PM 41.0 °F 39.0 °F 33.1 °F 73% 30.12 in 10.0 mi South 3.5 mph - N/A   Clear
9:53 PM 39.9 °F 36.7 °F 34.0 °F 79% 30.14 in 10.0 mi South 4.6 mph - N/A   Clear
10:53 PM 39.0 °F 34.0 °F 34.0 °F 82% 30.13 in 10.0 mi SE 6.9 mph - N/A   Clear
11:53 PM 39.9 °F 35.8 °F 34.0 °F 79% 30.14 in 10.0 mi SSE 5.8 mph - N/A   Clear